Temp
12 12 12 12 12 11 11 11 12 11 11 10 10 10 9 8 8 8 8 8 8 8
11 11 12 12 11 11 11 11 11 10 10 10 9 9 8 8 8 8 8 7 7 7
11 11 11 11 11 11 11 11 10 9 9 9 9 9 8 7 7 7 7 7 7 7
10 10 10 10 10 10 10 9 9 9 9 9 8 7 7 7 7 7 7 7 6 6
10 10 10 9 9 9 9 9 9 9 8 8 8 7 7 6 6 6 6 6 6 6
9 9 9 9 9 9 8 8 8 8 7 7 7 6 6 6 6 6 5 5 5 5
9 9 9 8 8 8 8 7 7 7 7 7 6 6 6 5 5 5 5 5 4 4
9 8 8 8 8 8 8 7 7 7 7 6 6 5 5 5 5 5 5 5 4 4
9 9 8 8 8 7 7 6 6 6 6 6 5 5 5 5 5 4 4 4 4 4
8 8 8 7 6 6 6 6 5 5 5 5 4 5 5 4 4 4 4 4 4 4
7 7 7 6 6 6 6 5 5 5 4 4 4 5 4 4 3 4 4 4 3 3
7 7 6 6 6 6 5 5 4 4 3 3 4 4 4 4 3 3 3 3 3 3
7 6 6 6 5 4 4 4 3 3 4 4 4 4 4 4 3 3 3 3 2 2
6 5 5 4 4 4 4 3 3 3 3 3 3 3 4 3 2 3 2 2 2 2
Height
819 820 819 820 822 826 828 829 830 833 829 831 830 830 830 830 831 833 833 833 832 831
815 815 816 817 820 820 823 825 827 828 829 828 829 828 829 829 828 829 832 832 830 829
812 814 813 814 817 816 819 822 826 826 825 825 828 827 826 826 825 827 827 827 828 826
809 811 810 813 815 814 818 822 822 822 821 821 824 826 823 822 822 823 824 824 824 822
807 809 811 812 813 814 816 819 818 819 818 819 821 822 821 821 820 820 822 821 822 820
805 808 810 810 811 814 814 816 816 815 817 818 820 819 818 819 818 818 819 819 819 817
805 807 809 809 811 813 812 814 813 813 815 816 815 815 814 814 815 816 815 815 814 813
804 805 806 807 808 808 809 810 810 810 811 811 811 811 812 813 814 813 813 812 811 811
801 802 803 804 803 804 806 806 807 807 807 807 807 808 810 811 812 811 811 811 810 808
798 799 800 801 802 803 803 803 803 804 804 805 805 805 806 806 807 807 807 806 804 804
796 798 798 799 799 800 799 799 800 801 802 803 804 805 805 806 805 805 803 802 801 799
793 794 794 794 795 796 797 799 800 800 801 801 802 802 802 801 801 800 798 797 795 794
789 791 792 793 795 796 796 797 797 797 797 797 797 797 797 796 796 794 793 791 789 786
787 789 791 792 793 793 793 794 794 794 794 794 793 792 791 791 790 789 787 784 782 781
Wind_Speed
15 13 10 10 8 9 8 8 9 9 6 6 5 5 5 5 5 7 8 9 9 9
13 12 12 12 13 11 11 10 9 8 6 4 4 4 4 3 4 5 7 8 9 10
17 16 15 13 12 12 10 9 8 6 4 3 5 4 4 3 4 5 6 7 9 9
15 14 13 12 11 10 9 9 8 7 5 5 5 5 4 4 5 6 7 8 9 9
12 11 11 10 9 10 10 10 8 7 5 5 6 6 5 6 5 6 8 8 9 9
11 12 11 11 12 12 10 8 7 5 5 6 7 6 5 6 6 7 8 8 9 9
12 12 10 10 10 10 8 7 6 6 7 7 7 8 7 7 7 8 8 9 9 9
10 10 10 11 11 10 10 9 9 9 8 8 7 7 6 7 8 9 9 9 9 9
13 12 13 12 12 11 12 11 9 8 8 8 7 8 8 9 8 8 9 9 9 9
13 14 14 13 12 12 10 8 7 6 7 7 6 8 8 8 8 9 9 10 10 11
15 13 11 11 10 8 7 6 6 6 7 7 7 7 7 9 10 11 12 12 13 13
13 11 10 10 8 7 7 6 6 6 6 7 7 8 9 10 11 13 14 14 14 14
12 11 9 8 8 6 7 6 7 7 9 10 10 10 11 12 12 15 16 15 15 17
9 8 6 6 6 6 6 7 8 9 9 10 11 13 14 15 14 16 17 16 16 15
Wind_Direction
207 201 190 192 182 190 193 202 218 241 243 255 267 269 268 264 272 271 264 258 256 261
207 201 198 194 195 193 202 209 223 232 246 260 270 270 272 277 280 273 275 273 267 261
204 202 197 196 201 195 203 218 224 229 234 258 269 263 261 265 271 270 266 266 266 264
199 199 194 197 199 199 205 212 217 227 229 228 242 252 256 257 258 262 264 264 266 266
188 192 196 192 193 198 200 217 216 218 219 234 247 258 262 263 268 271 273 273 273 276
182 188 191 193 201 206 204 207 213 222 238 249 256 265 273 278 280 275 273 273 274 279
187 192 196 196 199 203 204 212 221 231 240 251 259 264 268 275 273 273 273 273 276 277
188 191 196 203 205 206 210 216 222 230 243 253 262 267 268 272 272 276 280 282 281 279
195 199 203 204 206 209 215 219 225 236 247 262 271 273 271 271 279 282 285 286 285 285
204 207 209 209 209 214 218 221 235 252 268 266 258 260 259 257 262 265 272 279 284 284
208 210 208 211 217 223 233 248 255 253 250 257 263 265 256 267 273 273 277 278 279 282
213 215 218 225 230 230 233 241 242 242 244 253 258 255 263 276 275 274 276 277 275 277
227 225 226 227 220 218 229 232 243 250 253 252 255 264 275 278 274 276 278 278 276 280
220 220 217 208 222 236 241 249 251 255 253 255 264 275 279 278 274 275 282 282 281 277